Overview Statistics Trail Chart Weather Telemetry Raw packets
 

This is the latest recevied weather packets stored in our database for station/object N5JXS. If no packets are shown the sender has not sent any weather packets the latest 10 day(s).

<< 109 110 111 112 113 114 >>
Time Temp. Humidity Pressure Rain* Wind** Luminosity Snow
1787797613 14.44° C 81% 1032.4 hPa 0 mm - 0 W/m² -
1787797309 14.44° C 82% 1032.3 hPa 0 mm - 0 W/m² -
1787797008 14.44° C 81% 1032.2 hPa 0 mm - 0 W/m² -
1787796703 15° C 82% 1032.1 hPa 0 mm - 0 W/m² -
1787796399 14.44° C 81% 1031.8 hPa 0 mm - 0 W/m² -
1787796094 14.44° C 82% 1031.7 hPa 0 mm - 0 W/m² -
1787795792 13.89° C 82% 1031.6 hPa 0 mm - 0 W/m² -
1787795487 13.89° C 85% 1031.8 hPa 0 mm - 0 W/m² -
1787795186 13.89° C 88% 1031.8 hPa 0 mm - 0 W/m² -
1787794885 13.89° C 89% 1031.4 hPa 0 mm - 0 W/m² -
1787794580 14.44° C 90% 1031.6 hPa 0 mm - 1 W/m² -
1787794276 14.44° C 90% 1031.4 hPa 0 mm - 3 W/m² -
1787793971 15° C 91% 1031.7 hPa 0 mm - 8 W/m² -
1787793668 15° C 90% 1031.2 hPa 0 mm - 13 W/m² -
1787793362 15° C 90% 1030.6 hPa 0 mm - 19 W/m² -
1787793057 15° C 91% 1030.8 hPa 0 mm - 28 W/m² -
1787792752 15° C 90% 1031.4 hPa 1.78 mm - 42 W/m² -
1787792450 15° C 89% 1031.3 hPa 3.05 mm - 62 W/m² -
1787792149 15° C 87% 1031.8 hPa 1.27 mm - 34 W/m² -
1787791847 15.56° C 83% 1032.1 hPa 1.78 mm - 11 W/m² -
1787791543 15.56° C 82% 1032.1 hPa 1.78 mm - 6 W/m² -
1787791238 16.11° C 82% 1031.7 hPa 0 mm - 9 W/m² -
1787790933 16.11° C 81% 1032.1 hPa 0 mm - 11 W/m² -
1787790629 16.11° C 80% 1031.6 hPa 0 mm - 10 W/m² -
1787790328 16.11° C 80% 1031.8 hPa 0 mm - 6 W/m² -

* Rain latest hour (hover to see other rain measurements)
** Current wind speed in m/s (hover to see current wind gust speed)